Time,TemperatureF,DewpointF,PressureIn,WindDirection,WindDirectionDegrees,WindSpeedMPH,WindSpeedGustMPH,Humidity,HourlyPrecipIn,Conditions,Clouds,dailyrainin,SoftwareType,DateUTC
2013-04-26 00:00:00,36.9,10.5,30.14,SSW,205,0.0,0.0,33,0.00,,CLR,0.00,VWS V14.01,2013-04-26 05:00:00,
2013-04-26 00:05:00,36.9,11.8,30.14,SSW,204,0.0,0.0,35,0.00,,CLR,0.00,VWS V14.01,2013-04-26 05:05:00,
2013-04-26 00:11:00,36.7,12.3,30.14,SSW,204,0.0,0.0,36,0.00,,CLR,0.00,VWS V14.01,2013-04-26 05:11:00,
2013-04-26 00:16:00,36.7,11.6,30.14,SSW,204,0.0,0.0,35,0.00,,CLR,0.00,VWS V14.01,2013-04-26 05:16:00,
2013-04-26 00:21:00,36.5,11.5,30.14,SSW,204,0.0,0.0,35,0.00,,CLR,0.00,VWS V14.01,2013-04-26 05:21:00,
2013-04-26 00:26:00,36.3,11.3,30.14,SSW,203,0.0,0.0,35,0.00,,CLR,0.00,VWS V14.01,2013-04-26 05:26:00,
2013-04-26 00:32:00,36.3,11.9,30.14,SSW,203,0.0,0.0,36,0.00,,CLR,0.00,VWS V14.01,2013-04-26 05:32:00,
2013-04-26 00:37:00,36.3,11.9,30.14,SSW,197,0.0,0.0,36,0.00,,CLR,0.00,VWS V14.01,2013-04-26 05:37:00,
2013-04-26 00:42:00,36.3,11.9,30.14,SSW,196,0.0,0.0,36,0.00,,CLR,0.00,VWS V14.01,2013-04-26 05:42:00,
2013-04-26 00:47:00,36.3,12.6,30.14,SSW,196,0.0,0.0,37,0.00,,CLR,0.00,VWS V14.01,2013-04-26 05:47:00,
2013-04-26 00:52:00,36.3,12.6,30.14,SSW,192,0.0,0.0,37,0.00,,CLR,0.00,VWS V14.01,2013-04-26 05:52:00,
2013-04-26 00:57:00,36.1,12.4,30.14,South,173,0.0,0.0,37,0.00,,CLR,0.00,VWS V14.01,2013-04-26 05:57:00,
2013-04-26 01:02:00,36.1,12.4,30.14,SSE,167,0.0,0.0,37,0.00,,CLR,0.00,VWS V14.01,2013-04-26 06:02:00,
2013-04-26 01:08:00,36.1,13.6,30.14,SSE,153,0.0,0.0,39,0.00,,CLR,0.00,VWS V14.01,2013-04-26 06:08:00,
2013-04-26 01:14:00,36.3,13.8,30.14,SSE,159,0.0,0.0,39,0.00,,CLR,0.00,VWS V14.01,2013-04-26 06:14:00,
2013-04-26 01:19:00,36.3,14.3,30.14,South,180,0.0,2.7,40,0.00,,CLR,0.00,VWS V14.01,2013-04-26 06:19:00,
2013-04-26 01:25:00,36.3,14.3,30.14,South,179,0.0,0.0,40,0.00,,CLR,0.00,VWS V14.01,2013-04-26 06:25:00,
2013-04-26 01:30:00,36.3,14.3,30.11,SSE,162,0.0,0.0,40,0.00,,CLR,0.00,VWS V14.01,2013-04-26 06:30:00,
2013-04-26 01:35:00,36.5,14.5,30.11,SSE,148,0.0,0.0,40,0.00,,CLR,0.00,VWS V14.01,2013-04-26 06:35:00,
2013-04-26 01:40:00,36.5,14.5,30.11,SSE,161,4.0,4.0,40,0.00,,CLR,0.00,VWS V14.01,2013-04-26 06:40:00,
2013-04-26 01:45:00,36.7,14.6,30.11,SSE,149,0.0,0.0,40,0.00,,CLR,0.00,VWS V14.01,2013-04-26 06:45:00,
2013-04-26 01:50:00,36.9,14.8,30.11,SSE,159,4.0,4.0,40,0.00,,CLR,0.00,VWS V14.01,2013-04-26 06:50:00,
2013-04-26 01:56:00,37.0,15.0,30.11,South,179,0.0,0.0,40,0.00,,CLR,0.00,VWS V14.01,2013-04-26 06:56:00,
2013-04-26 02:01:00,37.4,14.7,30.11,SSE,166,0.0,0.0,39,0.00,,CLR,0.00,VWS V14.01,2013-04-26 07:01:00,
2013-04-26 02:06:00,37.4,14.7,30.11,SSE,158,2.7,5.8,39,0.00,,CLR,0.00,VWS V14.01,2013-04-26 07:06:00,
2013-04-26 02:11:00,37.6,14.9,30.11,SSE,157,3.1,3.6,39,0.00,,CLR,0.00,VWS V14.01,2013-04-26 07:11:00,
2013-04-26 02:16:00,37.6,14.9,30.11,SSE,156,3.1,3.6,39,0.00,,CLR,0.00,VWS V14.01,2013-04-26 07:16:00,
2013-04-26 02:21:00,37.6,14.9,30.11,SSE,163,0.0,3.1,39,0.00,,CLR,0.00,VWS V14.01,2013-04-26 07:21:00,
2013-04-26 02:26:00,37.6,15.5,30.11,SSE,160,2.7,4.0,40,0.00,,CLR,0.00,VWS V14.01,2013-04-26 07:26:00,
2013-04-26 02:32:00,37.6,14.9,30.11,South,181,3.6,3.6,39,0.00,,CLR,0.00,VWS V14.01,2013-04-26 07:32:00,
2013-04-26 02:38:00,37.8,15.0,30.11,SSE,162,3.1,4.0,39,0.00,,CLR,0.00,VWS V14.01,2013-04-26 07:38:00,
2013-04-26 02:43:00,37.8,15.0,30.11,SSW,192,4.0,4.0,39,0.00,,CLR,0.00,VWS V14.01,2013-04-26 07:43:00,
2013-04-26 02:49:00,38.1,15.4,30.11,South,183,2.7,4.0,39,0.00,,CLR,0.00,VWS V14.01,2013-04-26 07:49:00,
2013-04-26 02:54:00,38.1,15.4,30.11,South,172,3.1,3.1,39,0.00,,CLR,0.00,VWS V14.01,2013-04-26 07:54:00,
2013-04-26 03:00:00,38.1,15.4,30.11,SSE,158,5.4,5.4,39,0.00,,CLR,0.00,VWS V14.01,2013-04-26 08:00:00,
2013-04-26 03:05:00,38.3,15.5,30.11,SSE,164,0.0,0.0,39,0.00,,CLR,0.00,VWS V14.01,2013-04-26 08:05:00,
2013-04-26 03:10:00,38.3,14.9,30.11,SSE,158,3.6,5.4,38,0.00,,CLR,0.00,VWS V14.01,2013-04-26 08:10:00,
2013-04-26 03:15:00,38.1,15.4,30.11,South,181,2.7,4.0,39,0.00,,CLR,0.00,VWS V14.01,2013-04-26 08:15:00,
2013-04-26 03:21:00,38.1,15.4,30.11,South,181,4.0,4.0,39,0.00,,CLR,0.00,VWS V14.01,2013-04-26 08:21:00,
2013-04-26 03:26:00,38.1,15.4,30.11,SSE,164,3.1,4.0,39,0.00,,CLR,0.00,VWS V14.01,2013-04-26 08:26:00,
2013-04-26 03:32:00,37.9,15.2,30.11,South,172,0.0,4.9,39,0.00,,CLR,0.00,VWS V14.01,2013-04-26 08:32:00,
2013-04-26 03:37:00,37.9,15.2,30.11,South,178,3.6,3.6,39,0.00,,CLR,0.00,VWS V14.01,2013-04-26 08:37:00,
2013-04-26 03:42:00,37.9,15.2,30.11,SSE,158,2.2,3.6,39,0.00,,CLR,0.00,VWS V14.01,2013-04-26 08:42:00,
2013-04-26 03:47:00,37.9,15.2,30.11,SSE,162,0.0,3.6,39,0.00,,CLR,0.00,VWS V14.01,2013-04-26 08:47:00,
2013-04-26 03:53:00,37.9,15.2,30.11,SSE,157,4.0,4.0,39,0.00,,CLR,0.00,VWS V14.01,2013-04-26 08:53:00,
2013-04-26 03:59:00,37.9,15.2,30.11,SSE,166,0.0,5.4,39,0.00,,CLR,0.00,VWS V14.01,2013-04-26 08:59:00,
2013-04-26 04:04:00,37.9,15.2,30.11,SSE,157,4.9,5.8,39,0.00,,CLR,0.00,VWS V14.01,2013-04-26 09:04:00,
2013-04-26 04:10:00,38.1,15.4,30.11,South,190,4.0,5.8,39,0.00,,CLR,0.00,VWS V14.01,2013-04-26 09:10:00,
2013-04-26 04:15:00,38.1,15.4,30.11,SSW,193,4.0,4.5,39,0.00,,CLR,0.00,VWS V14.01,2013-04-26 09:15:00,
2013-04-26 04:20:00,38.1,15.4,30.11,SSE,167,5.8,5.8,39,0.00,,CLR,0.00,VWS V14.01,2013-04-26 09:20:00,
2013-04-26 04:25:00,38.1,14.8,30.11,SSE,166,4.5,5.4,38,0.00,,CLR,0.00,VWS V14.01,2013-04-26 09:25:00,
2013-04-26 04:31:00,38.3,14.9,30.11,SSE,150,3.1,5.4,38,0.00,,CLR,0.00,VWS V14.01,2013-04-26 09:31:00,
2013-04-26 04:37:00,38.5,15.1,30.11,SSE,151,2.7,5.4,38,0.00,,CLR,0.00,VWS V14.01,2013-04-26 09:37:00,
2013-04-26 04:42:00,38.5,14.5,30.11,SSE,162,3.1,4.9,37,0.00,,CLR,0.00,VWS V14.01,2013-04-26 09:42:00,
2013-04-26 04:48:00,38.7,14.0,30.11,South,178,3.1,4.0,36,0.00,,CLR,0.00,VWS V14.01,2013-04-26 09:48:00,
2013-04-26 04:53:00,38.7,14.0,30.11,SSE,151,3.6,3.6,36,0.00,,CLR,0.00,VWS V14.01,2013-04-26 09:53:00,
2013-04-26 04:58:00,38.8,14.2,30.11,SSE,151,6.3,6.3,36,0.00,,CLR,0.00,VWS V14.01,2013-04-26 09:58:00,
2013-04-26 05:03:00,38.8,14.2,30.11,South,169,2.7,5.8,36,0.00,,BKN095,0.00,VWS V14.01,2013-04-26 10:03:00,
2013-04-26 05:08:00,39.0,14.3,30.11,SE,145,3.6,6.3,36,0.00,,BKN095,0.00,VWS V14.01,2013-04-26 10:08:00,
2013-04-26 05:14:00,39.0,14.3,30.11,ESE,107,3.1,4.0,36,0.00,,BKN095,0.00,VWS V14.01,2013-04-26 10:14:00,
2013-04-26 05:20:00,39.2,13.2,30.11,SSE,153,0.0,0.0,34,0.00,,BKN095,0.00,VWS V14.01,2013-04-26 10:20:00,
2013-04-26 05:25:00,39.2,13.2,30.11,SSE,162,0.0,5.4,34,0.00,,BKN095,0.00,VWS V14.01,2013-04-26 10:25:00,
2013-04-26 05:31:00,39.2,12.5,30.11,SSE,151,6.3,6.3,33,0.00,,BKN095,0.00,VWS V14.01,2013-04-26 10:31:00,
2013-04-26 05:37:00,39.4,12.0,30.11,SE,141,4.9,6.3,32,0.00,,BKN095,0.00,VWS V14.01,2013-04-26 10:37:00,
2013-04-26 05:42:00,39.7,11.6,30.11,SSW,193,4.9,5.8,31,0.00,,BKN095,0.00,VWS V14.01,2013-04-26 10:42:00,
2013-04-26 05:47:00,39.9,11.8,30.11,SSE,155,8.3,8.3,31,0.00,,BKN095,0.00,VWS V14.01,2013-04-26 10:47:00,
2013-04-26 05:52:00,40.3,12.1,30.11,SE,127,3.6,3.6,31,0.00,,BKN095,0.00,VWS V14.01,2013-04-26 10:52:00,
2013-04-26 05:58:00,40.5,12.2,30.11,SSE,157,0.0,0.0,31,0.00,,BKN095,0.00,VWS V14.01,2013-04-26 10:58:00,
2013-04-26 06:03:00,40.5,12.2,30.11,SSE,164,3.6,3.6,31,0.00,,OVC090,0.00,VWS V14.01,2013-04-26 11:03:00,
2013-04-26 06:08:00,40.5,12.2,30.11,ESE,116,4.0,4.0,31,0.00,,OVC090,0.00,VWS V14.01,2013-04-26 11:08:00,
2013-04-26 06:13:00,40.5,12.2,30.11,SSE,165,2.7,3.6,31,0.00,,OVC090,0.00,VWS V14.01,2013-04-26 11:13:00,
2013-04-26 06:19:00,40.3,12.1,30.11,ESE,110,5.8,5.8,31,0.00,,OVC090,0.00,VWS V14.01,2013-04-26 11:19:00,
2013-04-26 06:24:00,40.3,12.8,30.11,SSE,153,3.6,5.8,32,0.00,,OVC090,0.00,VWS V14.01,2013-04-26 11:24:00,
2013-04-26 06:29:00,40.3,12.8,30.11,SSE,166,5.4,5.4,32,0.00,,OVC090,0.00,VWS V14.01,2013-04-26 11:29:00,
2013-04-26 06:34:00,40.3,12.8,30.11,SSE,155,3.1,5.8,32,0.00,,OVC090,0.00,VWS V14.01,2013-04-26 11:34:00,
2013-04-26 06:39:00,40.3,12.8,30.11,South,169,4.0,6.3,32,0.00,,OVC090,0.00,VWS V14.01,2013-04-26 11:39:00,
2013-04-26 06:45:00,40.5,12.9,30.11,South,191,3.1,6.3,32,0.00,,OVC090,0.00,VWS V14.01,2013-04-26 11:45:00,
2013-04-26 06:51:00,40.6,13.1,30.11,SSE,161,4.0,5.8,32,0.00,,OVC090,0.00,VWS V14.01,2013-04-26 11:51:00,
2013-04-26 06:56:00,40.8,13.3,30.11,SSE,163,8.7,8.7,32,0.00,,OVC090,0.00,VWS V14.01,2013-04-26 11:56:00,
2013-04-26 07:02:00,41.2,12.1,30.14,SSE,164,5.8,8.3,30,0.00,,OVC090,0.00,VWS V14.01,2013-04-26 12:02:00,
2013-04-26 07:07:00,41.4,12.3,30.14,SSE,158,5.4,5.4,30,0.00,,OVC090,0.00,VWS V14.01,2013-04-26 12:07:00,
2013-04-26 07:12:00,41.4,13.0,30.14,SSE,164,5.8,5.8,31,0.00,,OVC090,0.00,VWS V14.01,2013-04-26 12:12:00,
2013-04-26 07:17:00,41.4,13.0,30.14,SSE,162,8.7,8.7,31,0.00,,OVC090,0.00,VWS V14.01,2013-04-26 12:17:00,
2013-04-26 07:23:00,41.5,13.2,30.14,South,174,4.0,8.1,31,0.00,,OVC090,0.00,VWS V14.01,2013-04-26 12:23:00,
2013-04-26 07:29:00,41.7,12.6,30.11,South,175,8.3,8.3,30,0.00,,OVC090,0.00,VWS V14.01,2013-04-26 12:29:00,
2013-04-26 07:34:00,42.1,12.9,30.11,SSE,164,6.3,8.7,30,0.00,,OVC090,0.00,VWS V14.01,2013-04-26 12:34:00,
2013-04-26 07:40:00,42.3,13.1,30.11,SSE,164,5.8,8.1,30,0.00,,OVC090,0.00,VWS V14.01,2013-04-26 12:40:00,
2013-04-26 07:45:00,42.4,13.2,30.11,SSE,151,3.1,6.3,30,0.00,,OVC090,0.00,VWS V14.01,2013-04-26 12:45:00,
2013-04-26 07:50:00,43.0,13.7,30.11,SSW,197,5.8,10.1,30,0.00,,OVC090,0.00,VWS V14.01,2013-04-26 12:50:00,
2013-04-26 07:55:00,43.7,13.5,30.11,SSE,167,8.1,10.5,29,0.00,,OVC090,0.00,VWS V14.01,2013-04-26 12:55:00,
2013-04-26 08:01:00,44.1,13.9,30.11,South,186,8.3,8.3,29,0.00,,OVC085,0.00,VWS V14.01,2013-04-26 13:01:00,
2013-04-26 08:06:00,44.4,14.2,30.11,SE,144,4.9,6.3,29,0.00,,OVC085,0.00,VWS V14.01,2013-04-26 13:06:00,
2013-04-26 08:11:00,44.8,14.5,30.11,ESE,113,7.2,7.2,29,0.00,,OVC085,0.00,VWS V14.01,2013-04-26 13:11:00,
2013-04-26 08:16:00,45.1,14.8,30.11,SSE,152,3.6,6.3,29,0.00,,OVC085,0.00,VWS V14.01,2013-04-26 13:16:00,
2013-04-26 08:22:00,45.7,14.5,30.11,SSE,161,7.6,10.1,28,0.00,,OVC085,0.00,VWS V14.01,2013-04-26 13:22:00,
2013-04-26 08:28:00,46.2,14.9,30.11,SSW,204,6.3,10.1,28,0.00,,OVC085,0.00,VWS V14.01,2013-04-26 13:28:00,
2013-04-26 08:33:00,46.6,15.2,30.11,ESE,117,5.8,12.8,28,0.00,,OVC085,0.00,VWS V14.01,2013-04-26 13:33:00,
2013-04-26 08:38:00,46.9,15.6,30.11,SSE,166,6.3,6.3,28,0.00,,OVC085,0.00,VWS V14.01,2013-04-26 13:38:00,
2013-04-26 08:43:00,47.7,16.2,30.11,SSE,168,5.4,12.3,28,0.00,,OVC085,0.00,VWS V14.01,2013-04-26 13:43:00,
2013-04-26 08:48:00,48.4,16.0,30.11,SSE,154,5.4,7.6,27,0.00,,OVC085,0.00,VWS V14.01,2013-04-26 13:48:00,
2013-04-26 08:54:00,48.4,16.0,30.11,SSE,158,4.0,8.3,27,0.00,,OVC085,0.00,VWS V14.01,2013-04-26 13:54:00,
2013-04-26 09:00:00,48.7,16.3,30.08,SSE,153,11.0,12.8,27,0.00,,OVC085,0.00,VWS V14.01,2013-04-26 14:00:00,
2013-04-26 09:05:00,49.1,16.6,30.08,South,184,7.6,8.7,27,0.00,,OVC100,0.00,VWS V14.01,2013-04-26 14:05:00,
2013-04-26 09:11:00,49.3,16.7,30.08,SSE,159,10.1,10.5,27,0.00,,OVC100,0.00,VWS V14.01,2013-04-26 14:11:00,
2013-04-26 09:16:00,49.5,16.9,30.08,South,177,7.6,7.6,27,0.00,,OVC100,0.00,VWS V14.01,2013-04-26 14:16:00,
2013-04-26 09:21:00,50.2,17.5,30.08,South,173,8.7,8.7,27,0.00,,OVC100,0.00,VWS V14.01,2013-04-26 14:21:00,
2013-04-26 09:26:00,50.5,17.8,30.08,South,187,4.9,10.5,27,0.00,,OVC100,0.00,VWS V14.01,2013-04-26 14:26:00,
2013-04-26 09:32:00,51.1,18.3,30.08,South,185,5.8,10.5,27,0.00,,OVC100,0.00,VWS V14.01,2013-04-26 14:32:00,
2013-04-26 09:37:00,51.4,18.6,30.08,SSE,154,6.3,10.5,27,0.00,,OVC100,0.00,VWS V14.01,2013-04-26 14:37:00,
2013-04-26 09:43:00,51.8,18.0,30.08,South,184,3.1,6.3,26,0.00,,OVC100,0.00,VWS V14.01,2013-04-26 14:43:00,
2013-04-26 09:49:00,52.3,18.5,30.08,SSW,202,7.6,8.3,26,0.00,,OVC100,0.00,VWS V14.01,2013-04-26 14:49:00,
2013-04-26 09:54:00,52.5,18.6,30.08,South,188,5.8,7.6,26,0.00,,OVC100,0.00,VWS V14.01,2013-04-26 14:54:00,
2013-04-26 09:59:00,53.1,19.1,30.08,SSE,154,8.1,9.6,26,0.00,,OVC100,0.00,VWS V14.01,2013-04-26 14:59:00,
2013-04-26 10:04:00,53.1,19.1,30.08,SW,226,5.4,10.1,26,0.00,,CLR,0.00,VWS V14.01,2013-04-26 15:04:00,
2013-04-26 10:09:00,53.4,19.4,30.08,SSW,208,8.7,11.4,26,0.00,,CLR,0.00,VWS V14.01,2013-04-26 15:09:00,
2013-04-26 10:14:00,53.4,19.4,30.08,WNW,302,7.2,11.4,26,0.00,,CLR,0.00,VWS V14.01,2013-04-26 15:14:00,
2013-04-26 10:19:00,53.4,19.4,30.08,South,190,6.3,8.7,26,0.00,,CLR,0.00,VWS V14.01,2013-04-26 15:19:00,
2013-04-26 10:25:00,54.1,20.0,30.08,South,176,5.8,11.0,26,0.00,,CLR,0.00,VWS V14.01,2013-04-26 15:25:00,
2013-04-26 10:31:00,54.9,20.6,30.08,SSW,198,6.3,10.1,26,0.00,,CLR,0.00,VWS V14.01,2013-04-26 15:31:00,
2013-04-26 10:36:00,55.0,20.8,30.08,South,182,8.3,9.6,26,0.00,,CLR,0.00,VWS V14.01,2013-04-26 15:36:00,
2013-04-26 10:41:00,55.4,20.2,30.08,South,176,9.6,10.1,25,0.00,,CLR,0.00,VWS V14.01,2013-04-26 15:41:00,
2013-04-26 10:46:00,55.8,20.5,30.08,South,184,7.6,7.6,25,0.00,,CLR,0.00,VWS V14.01,2013-04-26 15:46:00,
2013-04-26 10:51:00,55.8,20.5,30.08,South,188,12.8,12.8,25,0.00,,CLR,0.00,VWS V14.01,2013-04-26 15:51:00,
2013-04-26 10:57:00,56.3,21.0,30.08,South,181,7.6,8.3,25,0.00,,CLR,0.00,VWS V14.01,2013-04-26 15:57:00,
2013-04-26 11:03:00,56.8,21.4,30.08,SSE,166,9.6,13.2,25,0.00,,CLR,0.00,VWS V14.01,2013-04-26 16:03:00,
2013-04-26 11:08:00,57.6,22.0,30.08,SSW,192,8.3,12.8,25,0.00,,CLR,0.00,VWS V14.01,2013-04-26 16:08:00,
2013-04-26 11:14:00,57.9,22.3,30.05,South,181,5.8,8.3,25,0.00,,CLR,0.00,VWS V14.01,2013-04-26 16:14:00,
2013-04-26 11:19:00,58.6,22.0,30.05,South,191,10.1,11.0,24,0.00,,CLR,0.00,VWS V14.01,2013-04-26 16:19:00,
2013-04-26 11:24:00,59.4,22.6,30.05,SSE,161,5.4,8.1,24,0.00,,CLR,0.00,VWS V14.01,2013-04-26 16:24:00,
2013-04-26 11:30:00,59.7,22.9,30.05,SSW,202,8.1,13.2,24,0.00,,CLR,0.00,VWS V14.01,2013-04-26 16:30:00,
2013-04-26 11:35:00,60.4,23.5,30.05,South,185,10.5,12.8,24,0.00,,CLR,0.00,VWS V14.01,2013-04-26 16:35:00,
2013-04-26 11:40:00,61.0,24.0,30.05,SSE,152,10.5,13.2,24,0.00,,CLR,0.00,VWS V14.01,2013-04-26 16:40:00,
2013-04-26 11:45:00,61.0,24.0,30.05,SSW,195,8.7,14.5,24,0.00,,CLR,0.00,VWS V14.01,2013-04-26 16:45:00,
2013-04-26 11:50:00,61.3,24.3,30.05,South,185,7.6,9.2,24,0.00,,CLR,0.00,VWS V14.01,2013-04-26 16:50:00,
2013-04-26 11:56:00,61.7,24.6,30.05,South,178,7.6,10.5,24,0.00,,CLR,0.00,VWS V14.01,2013-04-26 16:56:00,
2013-04-26 12:02:00,61.7,21.4,30.05,SSW,199,8.1,15.4,21,0.00,,CLR,0.00,VWS V14.01,2013-04-26 17:02:00,
2013-04-26 12:07:00,62.4,22.0,30.05,SE,133,10.5,12.8,21,0.00,,CLR,0.00,VWS V14.01,2013-04-26 17:07:00,
2013-04-26 12:13:00,62.2,21.9,30.05,SW,224,8.1,14.5,21,0.00,,CLR,0.00,VWS V14.01,2013-04-26 17:13:00,
2013-04-26 12:19:00,62.6,24.3,30.05,SSW,203,8.7,13.2,23,0.00,,CLR,0.00,VWS V14.01,2013-04-26 17:19:00,
2013-04-26 12:24:00,62.4,22.0,30.05,South,185,7.6,10.5,21,0.00,,CLR,0.00,VWS V14.01,2013-04-26 17:24:00,
2013-04-26 12:30:00,63.1,22.6,30.02,South,185,13.2,13.2,21,0.00,,CLR,0.00,VWS V14.01,2013-04-26 17:30:00,
2013-04-26 12:35:00,63.5,22.9,30.02,South,173,11.0,13.6,21,0.00,,CLR,0.00,VWS V14.01,2013-04-26 17:35:00,
2013-04-26 12:41:00,64.4,22.5,30.02,South,182,10.5,14.1,20,0.00,,CLR,0.00,VWS V14.01,2013-04-26 17:41:00,
2013-04-26 12:46:00,64.4,22.5,30.02,SSW,196,11.0,17.9,20,0.00,,CLR,0.00,VWS V14.01,2013-04-26 17:46:00,
2013-04-26 12:51:00,64.4,22.5,30.02,SE,144,11.0,11.0,20,0.00,,CLR,0.00,VWS V14.01,2013-04-26 17:51:00,
2013-04-26 12:56:00,64.8,22.8,30.02,SW,229,8.3,17.4,20,0.00,,CLR,0.00,VWS V14.01,2013-04-26 17:56:00,
2013-04-26 13:01:00,64.2,23.5,30.02,SSW,209,15.4,17.4,21,0.00,,CLR,0.00,VWS V14.01,2013-04-26 18:01:00,
2013-04-26 13:06:00,64.8,22.8,30.02,South,174,8.7,13.2,20,0.00,,CLR,0.00,VWS V14.01,2013-04-26 18:06:00,
2013-04-26 13:11:00,64.4,22.5,30.02,South,179,10.5,17.4,20,0.00,,CLR,0.00,VWS V14.01,2013-04-26 18:11:00,
2013-04-26 13:16:00,65.3,23.2,29.99,SSW,194,10.5,12.3,20,0.00,,CLR,0.00,VWS V14.01,2013-04-26 18:16:00,
2013-04-26 13:22:00,64.9,22.9,29.99,SSW,203,12.3,18.3,20,0.00,,CLR,0.00,VWS V14.01,2013-04-26 18:22:00,
2013-04-26 13:28:00,65.1,23.1,29.99,SW,220,13.2,13.6,20,0.00,,CLR,0.00,VWS V14.01,2013-04-26 18:28:00,
2013-04-26 13:34:00,65.1,23.1,30.02,SSW,208,10.5,11.0,20,0.00,,CLR,0.00,VWS V14.01,2013-04-26 18:34:00,
2013-04-26 13:39:00,65.7,23.5,30.02,SW,225,13.6,13.6,20,0.00,,CLR,0.00,VWS V14.01,2013-04-26 18:39:00,
2013-04-26 13:45:00,65.7,23.5,30.02,South,188,8.1,8.3,20,0.00,,CLR,0.00,VWS V14.01,2013-04-26 18:45:00,
2013-04-26 13:50:00,65.3,23.2,30.02,South,190,12.8,17.0,20,0.00,,CLR,0.00,VWS V14.01,2013-04-26 18:50:00,
2013-04-26 13:55:00,65.8,23.7,30.02,WSW,250,10.5,12.8,20,0.00,,CLR,0.00,VWS V14.01,2013-04-26 18:55:00,
2013-04-26 14:01:00,66.0,23.8,30.02,SW,218,21.0,21.0,20,0.00,,CLR,0.00,VWS V14.01,2013-04-26 19:01:00,
2013-04-26 14:06:00,66.0,23.8,30.02,South,189,16.8,16.8,20,0.00,,CLR,0.00,VWS V14.01,2013-04-26 19:06:00,
2013-04-26 14:12:00,66.2,24.0,30.02,SSE,167,11.0,12.3,20,0.00,,CLR,0.00,VWS V14.01,2013-04-26 19:12:00,
2013-04-26 14:17:00,65.8,23.7,29.99,South,184,7.6,10.5,20,0.00,,CLR,0.00,VWS V14.01,2013-04-26 19:17:00,
2013-04-26 14:22:00,65.8,23.7,29.99,South,181,14.5,16.8,20,0.00,,CLR,0.00,VWS V14.01,2013-04-26 19:22:00,
2013-04-26 14:27:00,65.3,23.2,29.99,SW,224,15.0,16.8,20,0.00,,CLR,0.00,VWS V14.01,2013-04-26 19:27:00,
2013-04-26 14:32:00,66.0,23.8,29.96,SW,214,7.6,9.2,20,0.00,,CLR,0.00,VWS V14.01,2013-04-26 19:32:00,
2013-04-26 14:38:00,66.4,24.1,29.96,SW,224,8.3,10.5,20,0.00,,CLR,0.00,VWS V14.01,2013-04-26 19:38:00,
2013-04-26 14:44:00,66.2,24.0,29.99,South,184,8.3,15.4,20,0.00,,CLR,0.00,VWS V14.01,2013-04-26 19:44:00,
2013-04-26 14:50:00,66.2,24.0,29.99,SSW,202,8.1,11.0,20,0.00,,CLR,0.00,VWS V14.01,2013-04-26 19:50:00,
2013-04-26 14:55:00,66.6,24.3,29.99,SSW,209,7.6,15.4,20,0.00,,CLR,0.00,VWS V14.01,2013-04-26 19:55:00,
2013-04-26 15:00:00,66.9,24.6,29.99,SSW,196,12.3,12.3,20,0.00,,CLR,0.00,VWS V14.01,2013-04-26 20:00:00,
2013-04-26 15:05:00,67.6,25.2,29.99,SSW,203,10.1,13.6,20,0.00,,CLR,0.00,VWS V14.01,2013-04-26 20:05:00,
2013-04-26 15:11:00,66.9,24.6,29.99,South,180,12.8,15.4,20,0.00,,CLR,0.00,VWS V14.01,2013-04-26 20:11:00,
2013-04-26 15:16:00,66.6,24.3,29.96,South,191,10.1,13.2,20,0.00,,CLR,0.00,VWS V14.01,2013-04-26 20:16:00,
2013-04-26 15:21:00,66.6,24.3,29.96,West,263,10.5,10.5,20,0.00,,CLR,0.00,VWS V14.01,2013-04-26 20:21:00,
2013-04-26 15:26:00,66.7,24.4,29.96,South,189,10.1,11.9,20,0.00,,CLR,0.00,VWS V14.01,2013-04-26 20:26:00,
2013-04-26 15:32:00,67.5,25.0,29.96,SW,230,16.3,16.3,20,0.00,,CLR,0.00,VWS V14.01,2013-04-26 20:32:00,
2013-04-26 15:38:00,67.6,25.2,29.96,SSW,209,10.5,10.5,20,0.00,,CLR,0.00,VWS V14.01,2013-04-26 20:38:00,
2013-04-26 15:43:00,67.1,24.7,29.96,SSW,195,6.3,8.7,20,0.00,,CLR,0.00,VWS V14.01,2013-04-26 20:43:00,
2013-04-26 15:48:00,67.1,24.7,29.96,SW,217,10.5,14.5,20,0.00,,CLR,0.00,VWS V14.01,2013-04-26 20:48:00,
2013-04-26 15:53:00,67.3,24.9,29.96,SSE,164,8.1,15.0,20,0.00,,CLR,0.00,VWS V14.01,2013-04-26 20:53:00,
2013-04-26 15:58:00,67.6,25.2,29.96,South,185,10.5,10.5,20,0.00,,CLR,0.00,VWS V14.01,2013-04-26 20:58:00,
2013-04-26 16:04:00,67.6,25.2,29.96,SW,225,6.3,8.7,20,0.00,,CLR,0.00,VWS V14.01,2013-04-26 21:04:00,
2013-04-26 16:09:00,67.8,25.3,29.96,SW,222,9.6,13.2,20,0.00,,CLR,0.00,VWS V14.01,2013-04-26 21:09:00,
2013-04-26 16:15:00,68.2,25.6,29.96,SSW,206,5.8,10.5,20,0.00,,CLR,0.00,VWS V14.01,2013-04-26 21:15:00,
2013-04-26 16:20:00,68.4,25.8,29.96,WSW,239,13.2,21.0,20,0.00,,CLR,0.00,VWS V14.01,2013-04-26 21:20:00,
2013-04-26 16:26:00,68.4,25.8,29.96,SSW,200,8.3,17.0,20,0.00,,CLR,0.00,VWS V14.01,2013-04-26 21:26:00,
2013-04-26 16:31:00,68.7,26.1,29.96,South,173,9.2,15.0,20,0.00,,CLR,0.00,VWS V14.01,2013-04-26 21:31:00,
2013-04-26 16:36:00,69.1,26.4,29.96,SSW,193,8.1,15.0,20,0.00,,CLR,0.00,VWS V14.01,2013-04-26 21:36:00,
2013-04-26 16:41:00,69.3,26.5,29.96,SSW,205,8.7,13.2,20,0.00,,CLR,0.00,VWS V14.01,2013-04-26 21:41:00,
2013-04-26 16:46:00,68.2,25.6,29.96,SW,233,13.6,17.4,20,0.00,,CLR,0.00,VWS V14.01,2013-04-26 21:46:00,
2013-04-26 16:51:00,68.0,25.5,29.96,SW,220,12.3,12.3,20,0.00,,CLR,0.00,VWS V14.01,2013-04-26 21:51:00,
2013-04-26 16:57:00,67.5,25.0,29.96,SW,226,10.5,16.8,20,0.00,,CLR,0.00,VWS V14.01,2013-04-26 21:57:00,
2013-04-26 17:03:00,67.3,24.9,29.96,WSW,239,13.2,15.0,20,0.00,,CLR,0.00,VWS V14.01,2013-04-26 22:03:00,
2013-04-26 17:08:00,67.3,24.9,29.96,West,269,10.5,17.4,20,0.00,,CLR,0.00,VWS V14.01,2013-04-26 22:08:00,
2013-04-26 17:13:00,67.6,25.2,29.96,SSE,147,10.5,11.0,20,0.00,,CLR,0.00,VWS V14.01,2013-04-26 22:13:00,
2013-04-26 17:18:00,66.9,24.6,29.96,South,183,5.8,13.6,20,0.00,,CLR,0.00,VWS V14.01,2013-04-26 22:18:00,
2013-04-26 17:24:00,66.6,24.3,29.96,South,180,7.6,8.1,20,0.00,,CLR,0.00,VWS V14.01,2013-04-26 22:24:00,
2013-04-26 17:29:00,66.2,24.0,29.96,SSW,203,8.1,9.6,20,0.00,,CLR,0.00,VWS V14.01,2013-04-26 22:29:00,
2013-04-26 17:35:00,66.0,23.8,29.96,SSW,194,7.6,10.5,20,0.00,,CLR,0.00,VWS V14.01,2013-04-26 22:35:00,
2013-04-26 17:41:00,66.0,23.8,29.96,SSW,205,8.1,12.3,20,0.00,,CLR,0.00,VWS V14.01,2013-04-26 22:41:00,
2013-04-26 17:46:00,65.8,23.7,29.96,South,184,7.6,15.0,20,0.00,,CLR,0.00,VWS V14.01,2013-04-26 22:46:00,
2013-04-26 17:51:00,66.0,23.8,29.96,South,182,9.6,12.8,20,0.00,,CLR,0.00,VWS V14.01,2013-04-26 22:51:00,
2013-04-26 17:56:00,66.0,23.8,29.96,South,171,5.4,10.5,20,0.00,,CLR,0.00,VWS V14.01,2013-04-26 22:56:00,
2013-04-26 18:02:00,66.0,23.8,29.96,SSW,195,11.0,11.0,20,0.00,,FEW120,0.00,VWS V14.01,2013-04-26 23:02:00,
2013-04-26 18:07:00,66.0,23.8,29.96,South,177,8.7,9.2,20,0.00,,FEW120,0.00,VWS V14.01,2013-04-26 23:07:00,
2013-04-26 18:12:00,66.0,23.8,29.96,SW,226,12.8,12.8,20,0.00,,FEW120,0.00,VWS V14.01,2013-04-26 23:12:00,
2013-04-26 18:17:00,65.8,23.7,29.96,SSW,200,6.3,9.6,20,0.00,,FEW120,0.00,VWS V14.01,2013-04-26 23:17:00,
2013-04-26 18:22:00,66.0,23.8,29.96,SW,219,13.6,16.8,20,0.00,,FEW120,0.00,VWS V14.01,2013-04-26 23:22:00,
2013-04-26 18:27:00,66.0,23.8,29.96,WNW,283,7.6,10.1,20,0.00,,FEW120,0.00,VWS V14.01,2013-04-26 23:27:00,
2013-04-26 18:32:00,65.7,23.5,29.96,SW,215,5.8,7.6,20,0.00,,FEW120,0.00,VWS V14.01,2013-04-26 23:32:00,
2013-04-26 18:38:00,64.9,22.9,29.96,SW,223,11.9,11.9,20,0.00,,FEW120,0.00,VWS V14.01,2013-04-26 23:38:00,
2013-04-26 18:44:00,64.8,22.8,29.99,SW,222,5.4,12.8,20,0.00,,FEW120,0.00,VWS V14.01,2013-04-26 23:44:00,
2013-04-26 18:49:00,64.8,22.8,29.99,SSW,205,8.7,11.0,20,0.00,,FEW120,0.00,VWS V14.01,2013-04-26 23:49:00,
2013-04-26 19:05:00,64.0,25.5,29.99,SSW,212,5.8,7.6,23,0.00,,CLR,0.00,VWS V14.01,2013-04-27 00:05:00,
2013-04-26 19:11:00,63.5,25.1,29.99,SSW,209,6.3,8.3,23,0.00,,CLR,0.00,VWS V14.01,2013-04-27 00:11:00,
2013-04-26 19:16:00,63.3,24.9,29.99,SSW,205,7.6,15.4,23,0.00,,CLR,0.00,VWS V14.01,2013-04-27 00:16:00,
2013-04-26 19:22:00,63.1,24.8,29.99,SW,223,6.3,8.3,23,0.00,,CLR,0.00,VWS V14.01,2013-04-27 00:22:00,
2013-04-26 19:27:00,63.0,22.5,29.99,South,181,8.7,8.7,21,0.00,,CLR,0.00,VWS V14.01,2013-04-27 00:27:00,
2013-04-26 19:33:00,62.6,24.3,29.99,South,181,5.4,6.3,23,0.00,,CLR,0.00,VWS V14.01,2013-04-27 00:33:00,
2013-04-26 19:38:00,62.4,25.2,29.99,South,177,12.8,12.8,24,0.00,,CLR,0.00,VWS V14.01,2013-04-27 00:38:00,
2013-04-26 19:44:00,62.1,24.9,29.99,SSW,207,14.1,14.1,24,0.00,,CLR,0.00,VWS V14.01,2013-04-27 00:44:00,
2013-04-26 19:49:00,61.7,24.6,29.99,South,177,8.1,8.7,24,0.00,,CLR,0.00,VWS V14.01,2013-04-27 00:49:00,
2013-04-26 19:55:00,61.3,24.3,29.99,South,189,6.7,9.6,24,0.00,,CLR,0.00,VWS V14.01,2013-04-27 00:55:00,
2013-04-26 20:01:00,61.0,24.0,29.99,SW,221,10.5,10.5,24,0.00,,CLR,0.00,VWS V14.01,2013-04-27 01:01:00,
2013-04-26 20:06:00,60.6,23.6,29.99,SW,233,5.8,6.3,24,0.00,,CLR,0.00,VWS V14.01,2013-04-27 01:06:00,
2013-04-26 20:11:00,60.3,23.4,29.99,SSW,204,5.8,9.6,24,0.00,,CLR,0.00,VWS V14.01,2013-04-27 01:11:00,
2013-04-26 20:16:00,59.9,23.0,30.05,South,184,5.8,10.5,24,0.00,,CLR,0.00,VWS V14.01,2013-04-27 01:16:00,
2013-04-26 20:21:00,59.5,22.7,30.05,SSW,211,6.3,10.1,24,0.00,,CLR,0.00,VWS V14.01,2013-04-27 01:21:00,
2013-04-26 20:27:00,59.4,23.6,30.05,SSW,207,5.8,7.2,25,0.00,,CLR,0.00,VWS V14.01,2013-04-27 01:27:00,
2013-04-26 20:33:00,59.2,23.4,30.05,South,174,5.4,12.8,25,0.00,,CLR,0.00,VWS V14.01,2013-04-27 01:33:00,
2013-04-26 20:39:00,58.6,22.9,30.05,South,187,5.8,6.3,25,0.00,,CLR,0.00,VWS V14.01,2013-04-27 01:39:00,
2013-04-26 20:44:00,58.5,22.8,30.05,SSW,197,3.6,6.3,25,0.00,,CLR,0.00,VWS V14.01,2013-04-27 01:44:00,
2013-04-26 20:49:00,58.3,23.6,30.05,SSW,202,5.8,5.8,26,0.00,,CLR,0.00,VWS V14.01,2013-04-27 01:49:00,
2013-04-26 20:54:00,58.1,23.4,30.05,South,184,4.0,6.3,26,0.00,,CLR,0.00,VWS V14.01,2013-04-27 01:54:00,
2013-04-26 20:59:00,57.9,23.3,30.05,South,181,5.4,5.8,26,0.00,,CLR,0.00,VWS V14.01,2013-04-27 01:59:00,
2013-04-26 21:05:00,57.7,23.1,30.05,South,178,6.3,10.1,26,0.00,,FEW100,0.00,VWS V14.01,2013-04-27 02:05:00,
2013-04-26 21:10:00,57.6,23.0,30.05,SW,226,4.0,6.3,26,0.00,,FEW100,0.00,VWS V14.01,2013-04-27 02:10:00,
2013-04-26 21:16:00,57.6,23.0,30.05,SSW,197,7.6,7.6,26,0.00,,FEW100,0.00,VWS V14.01,2013-04-27 02:16:00,
2013-04-26 21:22:00,57.4,22.8,30.05,South,175,8.3,8.3,26,0.00,,FEW100,0.00,VWS V14.01,2013-04-27 02:22:00,
2013-04-26 21:27:00,57.4,23.7,30.05,South,187,7.6,7.6,27,0.00,,FEW100,0.00,VWS V14.01,2013-04-27 02:27:00,
2013-04-26 21:32:00,57.0,23.4,30.05,South,184,6.3,11.0,27,0.00,,FEW100,0.00,VWS V14.01,2013-04-27 02:32:00,
2013-04-26 21:37:00,56.8,24.1,30.05,South,183,5.4,6.3,28,0.00,,FEW100,0.00,VWS V14.01,2013-04-27 02:37:00,
2013-04-26 21:42:00,56.7,24.0,30.05,SSW,199,5.8,8.3,28,0.00,,FEW100,0.00,VWS V14.01,2013-04-27 02:42:00,
2013-04-26 21:47:00,56.5,24.6,30.08,SSW,195,7.6,8.1,29,0.00,,FEW100,0.00,VWS V14.01,2013-04-27 02:47:00,
2013-04-26 21:52:00,56.3,24.5,30.08,SSW,195,4.0,6.3,29,0.00,,FEW100,0.00,VWS V14.01,2013-04-27 02:52:00,
2013-04-26 21:58:00,56.1,25.1,30.08,South,187,10.5,10.5,30,0.00,,FEW100,0.00,VWS V14.01,2013-04-27 02:58:00,
2013-04-26 22:04:00,55.9,25.8,30.08,South,181,7.6,8.1,31,0.00,,CLR,0.00,VWS V14.01,2013-04-27 03:04:00,
2013-04-26 22:10:00,55.9,25.8,30.08,South,184,5.4,7.6,31,0.00,,CLR,0.00,VWS V14.01,2013-04-27 03:10:00,
2013-04-26 22:15:00,55.9,25.8,30.08,SSE,166,6.3,7.6,31,0.00,,CLR,0.00,VWS V14.01,2013-04-27 03:15:00,
2013-04-26 22:20:00,55.9,25.8,30.08,South,170,8.3,8.3,31,0.00,,CLR,0.00,VWS V14.01,2013-04-27 03:20:00,
2013-04-26 22:25:00,55.9,26.5,30.08,South,184,4.0,6.3,32,0.00,,CLR,0.00,VWS V14.01,2013-04-27 03:25:00,
2013-04-26 22:30:00,55.8,26.4,30.08,South,185,4.0,7.6,32,0.00,,CLR,0.00,VWS V14.01,2013-04-27 03:30:00,
2013-04-26 22:36:00,55.4,26.8,30.08,SSW,196,5.4,8.1,33,0.00,,CLR,0.00,VWS V14.01,2013-04-27 03:36:00,
2013-04-26 22:41:00,55.2,27.4,30.08,SSW,205,5.8,8.1,34,0.00,,CLR,0.00,VWS V14.01,2013-04-27 03:41:00,
2013-04-26 22:46:00,55.2,27.4,30.08,SSW,197,3.6,5.4,34,0.00,,CLR,0.00,VWS V14.01,2013-04-27 03:46:00,
2013-04-26 22:51:00,55.0,27.2,30.08,SSW,195,4.9,8.1,34,0.00,,CLR,0.00,VWS V14.01,2013-04-27 03:51:00,
2013-04-26 22:57:00,54.9,27.8,30.08,SSW,207,4.0,5.8,35,0.00,,CLR,0.00,VWS V14.01,2013-04-27 03:57:00,
2013-04-26 23:01:00,54.7,27.6,30.08,South,190,5.4,5.8,35,0.00,,CLR,0.00,VWS V14.01,2013-04-27 04:01:00,
2013-04-26 23:03:00,54.7,27.6,30.08,South,183,4.0,6.3,35,0.00,,CLR,0.00,VWS V14.01,2013-04-27 04:03:00,
2013-04-26 23:04:00,54.5,27.4,30.08,South,182,6.3,6.7,35,0.00,,CLR,0.00,VWS V14.01,2013-04-27 04:04:00,
2013-04-26 23:05:00,54.5,27.4,30.08,SSW,205,5.4,6.3,35,0.00,,CLR,0.00,VWS V14.01,2013-04-27 04:05:00,
2013-04-26 23:07:00,54.5,27.4,30.08,SSW,198,7.6,7.6,35,0.00,,CLR,0.00,VWS V14.01,2013-04-27 04:07:00,
2013-04-26 23:12:00,54.5,27.4,30.08,SSW,196,5.4,7.6,35,0.00,,CLR,0.00,VWS V14.01,2013-04-27 04:12:00,
2013-04-26 23:18:00,54.3,27.3,30.08,South,188,3.1,8.1,35,0.00,,CLR,0.00,VWS V14.01,2013-04-27 04:18:00,
2013-04-26 23:24:00,54.1,27.1,30.08,South,188,5.8,11.0,35,0.00,,CLR,0.00,VWS V14.01,2013-04-27 04:24:00,
2013-04-26 23:29:00,54.1,27.1,30.08,SSE,165,5.4,8.7,35,0.00,,CLR,0.00,VWS V14.01,2013-04-27 04:29:00,
2013-04-26 23:35:00,54.0,27.0,30.08,South,179,5.4,6.3,35,0.00,,CLR,0.00,VWS V14.01,2013-04-27 04:35:00,
2013-04-26 23:40:00,53.8,26.8,30.08,South,188,8.3,8.3,35,0.00,,CLR,0.00,VWS V14.01,2013-04-27 04:40:00,
2013-04-26 23:46:00,53.4,27.1,30.08,South,188,6.7,7.2,36,0.00,,CLR,0.00,VWS V14.01,2013-04-27 04:46:00,
2013-04-26 23:51:00,53.2,27.0,30.08,SSW,209,5.4,8.7,36,0.00,,CLR,0.00,VWS V14.01,2013-04-27 04:51:00,
2013-04-26 23:56:00,53.2,27.0,30.08,SSW,196,5.8,5.8,36,0.00,,CLR,0.00,VWS V14.01,2013-04-27 04:56:00,